Location: *
(43.4667°N, 11.6833°E)
Time: 00:25:34
(UTC+00:00)

Lacrosse 5 - Pass Details

Date: 19 July 2019
Orbit: 717 x 722 km, 57.0° (Epoch: 01 August)

Event Time Altitude Azimuth Distance (km) Brightness Sun altitude
Rises 21:53:14 0° 313° (NW) 3,128 6.3 -22.8°
Reaches altitude 10° 21:55:55 10° 325° (NW) 2,205 5.4 -23.0°
Maximum altitude 22:00:19 29° 25° (NNE) 1,308 3.6 -23.2°
Enters shadow 22:04:14 12° 82° (E) 2,049 4.1 -23.5°
